| time (UTC) | temp C | wind direction | speed KPH | gust KPH | rain 1hr cm | rain 24hr cm | rain mn cm | humidity % | barometer mb |
| 20260508160056 | 17 | 0 | 1.6 | 6.4 | 0.00 | 0.00 | 0.00 | 81 | 1017.1 |
| 20260508154614 | 17 | 5 | 0.0 | 4.8 | 0.00 | 0.00 | 0.00 | 81 | 1017.0 |
| 20260508153055 | 17 | 5 | 0.0 | 4.8 | 0.00 | 0.00 | 0.00 | 82 | 1017.0 |
| 20260508151609 | 16 | 5 | 1.6 | 4.8 | 0.00 | 0.00 | 0.00 | 82 | 1017.1 |
| 20260508150059 | 16 | 0 | 0.0 | 4.8 | 0.00 | 0.00 | 0.00 | 82 | 1017.0 |
| 20260508144607 | 16 | 0 | 0.0 | 3.2 | 0.00 | 0.00 | 0.00 | 83 | 1017.0 |
| 20260508143107 | 16 | 345 | 1.6 | 4.8 | 0.00 | 0.00 | 0.00 | 83 | 1017.0 |
| 20260508141605 | 16 | 0 | 0.0 | 6.4 | 0.00 | 0.00 | 0.00 | 84 | 1017.0 |
| 20260508140055 | 16 | 77 | 0.0 | 4.8 | 0.00 | 0.00 | 0.00 | 84 | 1016.9 |
| 20260508134621 | 16 | 0 | 0.0 | 4.8 | 0.00 | 0.00 | 0.00 | 84 | 1016.7 |
| 20260508133101 | 16 | 96 | 1.6 | 6.4 | 0.00 | 0.00 | 0.00 | 84 | 1016.6 |
| 20260508131552 | 16 | 0 | 0.0 | 4.8 | 0.00 | 0.00 | 0.00 | 84 | 1016.5 |
| 20260508130050 | 16 | 103 | 3.2 | 6.4 | 0.00 | 0.00 | 0.00 | 84 | 1016.3 |
| 20260508124555 | 16 | 0 | 1.6 | 4.8 | 0.00 | 0.00 | 0.00 | 84 | 1016.3 |
| 20260508123056 | 16 | 122 | 0.0 | 4.8 | 0.00 | 0.00 | 0.00 | 84 | 1016.2 |
| 20260508121553 | 16 | 0 | 0.0 | 4.8 | 0.00 | 0.00 | 0.00 | 84 | 1016.2 |
| 20260508120058 | 16 | 0 | 1.6 | 6.4 | 0.00 | 0.00 | 0.00 | 84 | 1016.2 |
| 20260508114555 | 16 | 125 | 3.2 | 8.0 | 0.00 | 0.00 | 0.00 | 84 | 1016.1 |
| 20260508113055 | 16 | 123 | 0.0 | 4.8 | 0.00 | 0.00 | 0.00 | 84 | 1016.1 |
| 20260508111553 | 16 | 0 | 3.2 | 9.7 | 0.00 | 0.00 | 0.00 | 84 | 1016.1 |
| 20260508110052 | 16 | 97 | 3.2 | 11.3 | 0.00 | 0.00 | 0.00 | 84 | 1016.0 |
| 20260508104556 | 16 | 137 | 6.4 | 9.7 | 0.00 | 0.00 | 0.00 | 84 | 1015.9 |
| 20260508103101 | 16 | 111 | 1.6 | 6.4 | 0.00 | 0.00 | 0.00 | 85 | 1016.1 |
| 20260508101553 | 16 | 110 | 3.2 | 9.7 | 0.00 | 0.00 | 0.00 | 85 | 1016.1 |
| 20260508100112 | 16 | 148 | 1.6 | 6.4 | 0.00 | 0.00 | 0.00 | 85 | 1016.2 |
| 20260508094603 | 16 | 0 | 0.0 | 4.8 | 0.00 | 0.00 | 0.00 | 85 | 1016.2 |
| 20260508093050 | 16 | 173 | 0.0 | 9.7 | 0.00 | 0.00 | 0.00 | 84 | 1016.3 |
| 20260508091604 | 16 | 179 | 0.0 | 8.0 | 0.00 | 0.00 | 0.00 | 84 | 1016.3 |
| 20260508090115 | 16 | 154 | 4.8 | 9.7 | 0.00 | 0.00 | 0.00 | 84 | 1016.3 |
| 20260508084556 | 16 | 191 | 1.6 | 9.7 | 0.00 | 0.00 | 0.00 | 84 | 1016.4 |
| 20260508083055 | 16 | 160 | 3.2 | 8.0 | 0.00 | 0.00 | 0.00 | 84 | 1016.6 |
| 20260508081608 | 16 | 136 | 0.0 | 3.2 | 0.00 | 0.00 | 0.00 | 84 | 1016.7 |
| 20260508080057 | 16 | 136 | 1.6 | 11.3 | 0.00 | 0.00 | 0.00 | 84 | 1016.9 |
| 20260508074552 | 16 | 157 | 3.2 | 9.7 | 0.00 | 0.00 | 0.00 | 84 | 1016.9 |
| 20260508073106 | 16 | 148 | 4.8 | 12.9 | 0.00 | 0.00 | 0.00 | 84 | 1017.0 |
| 20260508071553 | 16 | 168 | 4.8 | 9.7 | 0.00 | 0.00 | 0.00 | 84 | 1017.1 |
| 20260508070054 | 16 | 0 | 0.0 | 6.4 | 0.00 | 0.00 | 0.00 | 84 | 1017.1 |
| 20260508064606 | 16 | 0 | 0.0 | 9.7 | 0.00 | 0.00 | 0.00 | 83 | 1017.1 |
| 20260508063106 | 16 | 214 | 3.2 | 9.7 | 0.00 | 0.00 | 0.00 | 83 | 1017.2 |
| 20260508061550 | 16 | 196 | 1.6 | 6.4 | 0.00 | 0.00 | 0.00 | 83 | 1017.2 |
| 20260508060105 | 16 | 197 | 1.6 | 6.4 | 0.00 | 0.00 | 0.00 | 83 | 1017.1 |
| 20260508054551 | 16 | 198 | 0.0 | 4.8 | 0.00 | 0.00 | 0.00 | 83 | 1017.1 |
| 20260508053055 | 16 | 0 | 1.6 | 8.0 | 0.00 | 0.00 | 0.00 | 84 | 1017.1 |
| 20260508051608 | 16 | 0 | 1.6 | 4.8 | 0.00 | 0.00 | 0.00 | 84 | 1017.2 |
| 20260508050051 | 16 | 218 | 0.0 | 4.8 | 0.00 | 0.00 | 0.00 | 83 | 1017.3 |
| 20260508044551 | 16 | 219 | 1.6 | 4.8 | 0.00 | 0.00 | 0.00 | 83 | 1017.1 |
| 20260508043055 | 16 | 217 | 3.2 | 6.4 | 0.00 | 0.00 | 0.00 | 84 | 1016.8 |
| 20260508041555 | 16 | 215 | 1.6 | 4.8 | 0.00 | 0.00 | 0.00 | 84 | 1016.6 |
| 20260508040056 | 16 | 217 | 3.2 | 6.4 | 0.00 | 0.00 | 0.00 | 83 | 1016.4 |
| 20260508034553 | 16 | 242 | 3.2 | 11.3 | 0.00 | 0.00 | 0.00 | 83 | 1016.2 |
| 20260508033059 | 16 | 248 | 3.2 | 8.0 | 0.00 | 0.00 | 0.00 | 83 | 1016.0 |
| 20260508031558 | 16 | 240 | 4.8 | 11.3 | 0.00 | 0.00 | 0.00 | 83 | 1015.7 |
| 20260508024617 | 16 | 245 | 1.6 | 6.4 | 0.00 | 0.00 | 0.00 | 83 | 1015.3 |
| 20260508023056 | 16 | 284 | 3.2 | 14.5 | 0.00 | 0.00 | 0.00 | 82 | 1015.2 |
| 20260508021604 | 16 | 192 | 3.2 | 8.0 | 0.00 | 0.00 | 0.00 | 82 | 1015.2 |
| 20260508020054 | 16 | 226 | 4.8 | 11.3 | 0.00 | 0.00 | 0.00 | 81 | 1015.1 |
| 20260508014554 | 17 | 243 | 3.2 | 9.7 | 0.00 | 0.00 | 0.00 | 80 | 1015.0 |
| 20260508013054 | 17 | 237 | 3.2 | 11.3 | 0.00 | 0.00 | 0.00 | 80 | 1015.0 |
| 20260508011554 | 17 | 294 | 4.8 | 12.9 | 0.00 | 0.00 | 0.00 | 80 | 1015.1 |
| 20260508010054 | 17 | 294 | 3.2 | 14.5 | 0.00 | 0.00 | 0.00 | 80 | 1015.1 |
| 20260508004555 | 18 | 288 | 3.2 | 12.9 | 0.00 | 0.00 | 0.00 | 78 | 1015.1 |
| 20260508003054 | 17 | 258 | 3.2 | 16.1 | 0.00 | 0.00 | 0.00 | 79 | 1015.1 |
| 20260508001552 | 17 | 246 | 6.4 | 14.5 | 0.00 | 0.00 | 0.00 | 79 | 1015.2 |
| 20260508000054 | 18 | 243 | 4.8 | 14.5 | 0.00 | 0.00 | 0.00 | 76 | 1015.3 |
| 20260507234553 | 17 | 294 | 3.2 | 17.7 | 0.00 | 0.00 | 0.00 | 78 | 1015.2 |
| 20260507233100 | 18 | 238 | 6.4 | 17.7 | 0.00 | 0.00 | 0.00 | 77 | 1015.1 |
| 20260507231559 | 18 | 260 | 6.4 | 24.1 | 0.00 | 0.00 | 0.00 | 77 | 1015.2 |
| 20260507230110 | 18 | 295 | 6.4 | 16.1 | 0.00 | 0.00 | 0.00 | 76 | 1015.1 |
| 20260507224555 | 18 | 290 | 6.4 | 16.1 | 0.00 | 0.00 | 0.00 | 76 | 1015.2 |
| 20260507223052 | 18 | 234 | 11.3 | 19.3 | 0.00 | 0.00 | 0.00 | 76 | 1015.3 |
| 20260507221554 | 18 | 261 | 6.4 | 22.5 | 0.00 | 0.00 | 0.00 | 76 | 1015.5 |
| 20260507220055 | 19 | 360 | 9.7 | 19.3 | 0.00 | 0.00 | 0.00 | 76 | 1015.6 |
| 20260507214555 | 20 | 254 | 9.7 | 17.7 | 0.00 | 0.00 | 0.00 | 74 | 1015.5 |
| 20260507213053 | 19 | 242 | 8.0 | 20.9 | 0.00 | 0.00 | 0.00 | 75 | 1015.7 |
| 20260507211551 | 20 | 262 | 11.3 | 25.7 | 0.00 | 0.00 | 0.00 | 73 | 1015.9 |
| 20260507210109 | 20 | 227 | 12.9 | 22.5 | 0.00 | 0.00 | 0.00 | 74 | 1015.9 |
| 20260507204554 | 20 | 258 | 9.7 | 24.1 | 0.00 | 0.00 | 0.00 | 73 | 1016.1 |
| 20260507203115 | 20 | 182 | 9.7 | 22.5 | 0.00 | 0.00 | 0.00 | 75 | 1016.1 |
| 20260507201553 | 20 | 271 | 9.7 | 25.7 | 0.00 | 0.00 | 0.00 | 73 | 1016.2 |
| 20260507200057 | 20 | 360 | 11.3 | 19.3 | 0.00 | 0.00 | 0.00 | 74 | 1016.1 |
| 20260507194601 | 20 | 206 | 9.7 | 22.5 | 0.00 | 0.00 | 0.00 | 73 | 1016.2 |
| 20260507193052 | 20 | 259 | 8.0 | 19.3 | 0.00 | 0.00 | 0.00 | 73 | 1016.3 |
| 20260507191550 | 20 | 209 | 8.0 | 20.9 | 0.00 | 0.00 | 0.00 | 72 | 1016.5 |
| 20260507184558 | 19 | 246 | 9.7 | 22.5 | 0.00 | 0.00 | 0.00 | 74 | 1016.8 |
| 20260507183058 | 19 | 360 | 9.7 | 19.3 | 0.00 | 0.00 | 0.00 | 74 | 1017.0 |
| 20260507181552 | 20 | 220 | 9.7 | 19.3 | 0.00 | 0.00 | 0.00 | 75 | 1017.0 |
| 20260507180053 | 20 | 252 | 9.7 | 17.7 | 0.00 | 0.00 | 0.00 | 74 | 1017.0 |
| 20260507174551 | 20 | 211 | 4.8 | 14.5 | 0.00 | 0.00 | 0.00 | 73 | 1017.2 |
| 20260507173128 | 20 | 360 | 6.4 | 14.5 | 0.00 | 0.00 | 0.00 | 74 | 1017.2 |
| 20260507171548 | 18 | 241 | 6.4 | 17.7 | 0.00 | 0.00 | 0.00 | 75 | 1017.1 |
| 20260507170050 | 19 | 263 | 4.8 | 17.7 | 0.00 | 0.00 | 0.00 | 75 | 1017.2 |
| 20260507164551 | 18 | 247 | 4.8 | 12.9 | 0.00 | 0.00 | 0.00 | 76 | 1017.2 |
| 20260507163050 | 18 | 241 | 6.4 | 12.9 | 0.00 | 0.00 | 0.00 | 78 | 1017.4 |
| 20260507161554 | 18 | 249 | 4.8 | 11.3 | 0.00 | 0.00 | 0.00 | 77 | 1017.2 |